Weather in Satka

Russia / Chelyabinsk Oblast     55°02′25″N   59°01′43″E
temp.,
°C
wind,
m/s
gust,
m/s
humid.,
%
clouds,
%
prec.,
mm/h
press.,
hPa
HPBL,
m
1 august, sun
sun123:00+15se229684 4.1 100926
02:00+16ssw369892 1.7 1009104
05:00+15sw269798 1.7 1009135
08:00+18wsw310920 0.0 1010646
11:00+22w58671 0.2 10101193
14:00+22w597285 0.9 10111388
17:00+25w59435 1.3 10112465
20:00+20wsw27676 0.0 1011168
2 august, mon
mon223:00+15sw1177100 0.0 101311
02:00+15ssw2277100 0.0 101328
05:00+15ssw227574 0.0 101438
08:00+19w1266100 0.0 1014171
11:00+23nw365167 0.0 10141410
14:00+25nw464495 0.0 10142019
17:00+25nw364583 0.0 10141999
20:00+21w117150 0.0 101511
3 august, tue
tue323:00+19ssw2272100 0.0 101542
02:00+16ssw2376100 0.0 101554
05:00+16ssw34735 0.0 101650
08:00+20sw23613 0.0 1016140
11:00+26w35405 0.0 10151204
14:00+28wnw35345 0.0 10142261
17:00+28nw35336 0.0 10132222
20:00+22sse116297 0.0 101311
4 august, wed
wed423:00+19s226089 0.0 101417
02:00+18s225962 0.0 101335
05:00+19s225562 0.0 101335
08:00+21s34675 0.2 101372
11:00+30sw233012 0.2 10111019
14:00+31w23305 0.0 10111463
17:00+31w242996 0.0 10101933
20:00+21sse1160100 0.0 101111
5 august, thu
thu523:00+18sse115998 0.0 101211
02:00+17ssw3456100 0.0 101149
05:00+16sw357092 0.1 101265
08:00+20ssw237399 0.2 101299
11:00+26nw124142 0.2 1011815
14:00+29nnw233455 0.0 10092090
17:00+24ene235392 0.2 1009908
20:00+18ese1185100 0.3 100817